Tracking 35051 objects as of 17-Aug-2026
HD Live streaming from Space Station
objects crossing your sky now

CZ-4C DEB

Track CZ-4C DEB now!
10-day predictions


NORAD ID: 44598
Int'l Code: 2013-065H
Launch date: November 20, 2013
Source: People's Republic of China (PRC)
Launch site: Taiyaun Space Center, China (TSC)

Note: This is SATELLITE DEBRIS
Your satellite tracking list
Your tracking list is empty




NASA's NSSDC Master Catalog

Two Line Element Set (TLE):
1 44598U 13065H   26226.56095043 -.00000023  00000-0  40097-4 0  9995
2 44598 100.4144 172.3465 0140812  65.6615 295.9141 13.43671840541669
Source of the keplerian elements: AFSPC